Wind_Speed
27 28 28 28 28 30 30 31 31 30 31 32 33 32 31 31 31 31 31 32 32 32 32 33 32 32 32 32 33 33 34 33 33 33 33 33 33 33 34 34 35 36 36 36
29 29 28 29 30 31 31 32 32 32 33 34 34 32 31 30 31 31 31 32 33 33 33 33 33 32 32 32 32 33 33 34 33 34 34 34 34 34 34 35 36 36 37 37
30 31 31 31 31 32 32 32 32 33 34 35 35 34 31 31 31 31 31 32 33 33 33 33 33 33 33 32 32 32 33 33 34 35 35 35 35 35 35 35 36 37 38 38
32 31 32 33 33 33 33 33 34 34 35 35 35 36 31 31 31 32 33 33 33 33 33 34 34 33 33 33 33 33 34 33 34 35 35 36 36 36 36 35 35 36 37 37
32 32 32 32 33 34 34 34 35 36 36 37 35 37 33 31 31 32 32 33 33 33 33 34 34 34 34 34 35 34 35 34 34 35 35 35 36 36 36 36 36 37 37 37
32 32 32 31 32 33 33 34 36 36 37 38 35 36 35 32 32 32 32 33 33 34 34 34 34 34 35 36 36 36 35 36 35 35 36 36 36 36 37 37 37 38 38 38
32 32 32 31 32 32 33 34 36 37 37 37 35 37 36 33 33 33 33 33 33 34 34 35 35 35 35 35 36 36 36 36 36 36 37 37 37 37 38 39 40 40 40 40
33 32 32 32 32 32 32 33 34 36 37 37 37 38 36 35 34 33 34 34 34 34 35 35 35 35 35 35 36 36 37 37 37 37 37 38 39 39 39 40 41 41 41 42
34 34 32 32 32 32 33 33 34 36 37 38 39 38 35 33 34 33 34 33 33 34 34 35 35 36 36 36 37 37 37 37 38 38 38 38 39 40 40 41 42 42 42 43
33 35 33 32 33 32 33 33 33 35 37 39 39 38 34 33 34 34 34 34 34 34 35 35 35 36 36 37 37 38 37 38 39 39 40 40 40 40 42 42 43 43 43 44
34 35 34 33 32 32 32 33 33 35 36 38 39 37 34 34 34 35 35 36 36 36 36 36 36 36 37 37 38 38 39 39 39 40 41 41 41 42 42 42 42 43 44 44
34 35 35 34 33 32 32 32 33 34 36 37 39 38 35 35 35 35 36 37 37 37 36 36 37 37 38 38 39 39 39 40 40 40 41 42 43 43 43 43 43 44 44 45
34 35 36 35 34 33 33 33 33 34 36 37 38 37 35 35 36 37 37 37 37 37 37 37 37 38 39 39 39 40 40 40 40 40 41 42 44 43 43 44 44 45 45 46
35 36 36 36 35 34 34 35 36 36 37 38 38 36 34 35 37 38 37 37 37 37 38 38 38 38 39 40 40 40 41 41 41 41 42 44 44 45 45 45 45 45 46 47
36 37 37 36 36 36 37 37 37 38 39 39 37 36 34 35 37 38 39 38 37 38 39 39 40 40 40 41 40 41 41 41 42 42 44 44 44 45 45 46 46 47 47 48
38 39 38 38 37 38 39 38 38 38 38 39 40 38 36 37 38 39 39 39 39 39 40 40 41 41 42 42 42 42 42 42 42 43 44 44 45 45 45 46 46 47 47 48
38 39 39 39 39 40 41 38 39 39 38 39 40 38 37 38 39 39 40 40 41 41 41 41 42 42 42 43 43 43 43 44 44 43 44 44 45 45 45 46 46 47 47 47
39 39 40 40 41 43 40 39 39 39 39 39 39 38 38 39 40 40 41 41 41 41 40 41 42 42 42 43 43 43 44 44 45 45 45 45 45 46 46 46 46 46 46 46
39 39 40 41 42 43 40 39 38 38 39 37 38 38 38 39 40 40 40 40 41 41 41 41 41 41 42 43 43 43 43 44 45 45 45 45 45 46 47 47 47 46 46 45
39 40 40 42 43 44 41 39 37 39 39 36 37 37 38 38 40 39 38 39 40 41 42 42 42 42 42 43 43 43 43 44 45 45 45 45 46 46 47 47 47 46 46 46
39 39 40 42 43 44 41 39 38 39 38 37 38 38 39 39 40 39 39 39 40 40 41 41 42 42 42 42 43 43 44 44 45 45 45 46 46 47 46 46 46 46 46 46
40 41 41 41 42 42 39 40 39 39 39 38 38 39 40 40 39 38 39 40 41 41 41 41 41 41 41 42 43 43 44 44 44 44 44 45 45 45 45 45 45 45 45 45
42 41 41 42 42 41 40 40 40 40 40 39 39 39 40 39 38 38 39 40 40 40 40 40 40 40 40 41 42 42 43 43 43 44 44 44 44 44 44 44 44 45 45 45
41 40 41 42 41 40 40 40 40 40 40 39 39 39 39 39 39 38 39 39 39 39 39 39 39 39 40 41 41 42 43 43 43 43 43 43 43 44 44 43 44 44 44 45
42 41 41 41 40 40 39 39 39 39 39 39 40 39 39 39 39 38 39 39 39 39 39 39 40 40 40 41 42 42 42 43 43 43 44 43 43 43 44 44 43 43 44 44
41 41 42 41 40 40 40 40 40 39 39 39 40 39 39 39 38 38 39 38 38 38 39 39 40 40 41 42 42 43 43 43 43 42 43 43 43 43 43 43 43 43 44 44
Wind_Direction
281 277 277 278 275 273 272 271 271 272 272 271 268 266 264 263 262 260 259 259 258 258 259 260 261 262 262 262 262 261 262 262 263 264 263 263 264 264 263 262 261 261 262 262
281 278 278 276 275 274 272 272 272 272 272 271 269 266 264 263 262 260 260 262 261 260 259 260 261 263 262 264 263 262 263 264 265 264 264 264 264 265 265 263 261 261 261 262
281 281 278 276 275 275 274 275 275 275 273 271 269 266 263 261 262 261 262 263 262 262 261 260 261 262 261 262 264 264 264 264 266 265 266 266 265 265 265 264 263 263 263 264
280 280 279 277 276 276 276 275 275 275 274 272 270 269 263 262 262 263 263 263 264 263 264 263 262 262 262 262 264 266 265 265 266 266 266 266 266 265 264 264 264 264 264 264
280 279 278 277 276 276 277 275 274 275 274 271 269 270 266 264 264 264 264 264 264 264 264 264 263 262 262 262 263 265 266 266 267 267 267 268 267 266 265 264 265 264 264 264
280 278 277 277 277 276 277 275 274 274 273 271 270 270 269 267 267 266 266 265 264 263 264 264 264 263 262 261 262 264 265 266 268 268 269 269 268 267 266 266 266 265 264 264
279 278 277 277 278 278 278 277 276 274 272 271 271 270 270 270 269 268 267 266 264 263 263 264 264 263 262 262 262 263 265 266 269 270 270 270 269 269 268 267 267 266 264 263
281 280 279 278 278 280 280 279 278 277 276 274 272 271 272 272 270 269 269 267 265 262 261 262 263 263 263 263 262 263 264 266 267 269 270 271 270 270 270 269 268 267 265 264
281 279 279 277 278 279 280 279 279 277 276 275 272 272 272 272 270 269 268 268 265 262 261 262 263 263 263 263 263 263 264 266 267 269 270 270 271 271 270 269 268 266 265 264
281 279 277 276 277 278 279 279 279 277 277 275 273 272 274 274 272 270 269 268 267 264 262 262 263 263 263 262 262 263 266 267 268 268 268 270 270 270 270 269 268 267 266 265
281 279 278 277 276 278 279 278 278 278 276 275 275 274 274 274 273 272 270 268 267 266 265 264 264 263 264 264 264 265 266 267 268 267 267 269 269 270 270 268 268 267 266 266
279 278 277 277 276 276 276 277 277 277 277 276 275 274 273 273 273 273 272 270 269 268 267 267 266 264 265 265 265 266 266 267 268 267 268 269 269 270 268 267 267 267 267 267
278 276 277 277 276 276 275 275 276 276 275 274 273 274 272 272 272 273 273 272 271 270 269 269 267 266 265 265 265 266 266 267 267 267 267 268 268 268 268 267 266 266 267 267
276 275 276 276 277 276 275 274 273 274 274 274 273 274 272 272 272 273 273 272 272 270 269 269 268 267 267 266 266 268 268 268 268 267 267 267 268 268 268 268 267 267 267 267
275 275 275 275 275 274 274 275 275 275 275 274 274 273 273 272 271 270 270 270 270 269 269 269 269 269 268 267 267 268 269 269 269 268 268 268 268 268 268 269 269 269 269 269
273 275 275 274 275 275 275 276 277 277 276 275 274 273 273 273 271 270 270 270 269 268 268 268 268 269 269 268 268 268 269 269 270 270 270 270 270 269 270 270 270 270 269 269
274 275 276 275 275 275 275 278 279 279 278 277 276 275 274 272 272 270 269 269 269 269 268 268 268 269 270 270 269 269 268 269 270 271 270 270 271 270 271 272 272 272 272 271
274 276 277 277 276 274 279 279 280 279 278 277 276 275 274 274 273 272 270 270 270 270 269 269 270 270 270 270 270 270 270 270 271 271 270 270 270 271 271 272 272 272 271 271
274 276 276 277 277 277 279 282 282 280 278 277 277 276 275 276 275 273 272 271 270 270 270 270 270 270 271 270 270 270 270 271 271 270 270 270 270 270 270 270 270 270 270 269
274 275 276 277 278 279 281 282 281 279 277 278 277 276 275 276 276 275 273 271 271 271 271 271 271 271 271 271 270 271 271 271 270 270 270 270 270 271 270 270 269 269 268 269
273 274 276 277 278 278 282 283 281 279 279 278 277 276 276 277 277 277 274 271 271 272 273 273 272 272 271 271 270 271 272 272 272 271 271 271 271 271 271 270 270 268 268 268
274 274 275 276 276 279 281 279 279 279 278 277 277 277 277 277 277 276 275 272 272 273 273 273 274 273 273 272 271 271 272 272 273 273 273 272 272 272 271 270 269 268 267 267
273 275 275 276 277 279 278 278 279 278 277 276 277 278 278 277 277 277 276 274 273 273 273 273 273 273 273 273 272 271 272 273 273 274 274 274 273 271 270 270 269 269 268 269
273 273 273 274 276 277 276 277 278 278 278 277 276 276 277 278 278 278 276 275 273 272 272 273 274 274 274 274 273 273 273 273 273 273 273 273 272 271 270 269 269 269 269 270
274 273 273 274 275 275 275 276 277 277 276 276 275 275 277 278 276 276 276 275 273 272 273 274 274 275 275 275 274 274 273 273 273 273 272 272 271 270 270 270 269 270 270 271
273 272 273 274 274 275 274 274 276 276 276 276 275 274 275 276 275 275 276 275 272 272 273 274 275 276 276 276 276 275 273 273 273 273 273 272 272 272 271 271 270 271 271 271
Height
5707 5706 5705 5704 5703 5702 5701 5700 5700 5700 5698 5696 5695 5696 5697 5696 5696 5697 5698 5699 5700 5701 5702 5703 5704 5704 5705 5705 5706 5706 5706 5706 5707 5708 5709 5709 5710 5710 5711 5711 5711 5711 5712 5713
5700 5698 5698 5696 5694 5693 5692 5691 5691 5691 5689 5687 5687 5687 5689 5688 5688 5689 5690 5691 5692 5693 5694 5694 5695 5696 5697 5697 5697 5698 5698 5698 5699 5699 5700 5701 5701 5702 5702 5702 5702 5703 5703 5704
5691 5691 5689 5688 5686 5685 5684 5683 5682 5681 5680 5678 5677 5678 5681 5681 5680 5681 5682 5682 5683 5684 5685 5686 5687 5687 5688 5689 5689 5690 5690 5690 5690 5691 5691 5692 5692 5692 5693 5693 5693 5694 5694 5694
5683 5682 5681 5679 5678 5676 5676 5675 5673 5672 5670 5669 5669 5667 5672 5673 5672 5672 5673 5673 5674 5675 5676 5677 5678 5678 5679 5680 5680 5681 5681 5681 5681 5682 5682 5683 5683 5684 5684 5684 5684 5684 5684 5685
5674 5673 5672 5670 5670 5668 5667 5666 5664 5662 5660 5659 5660 5658 5662 5663 5664 5664 5664 5664 5665 5665 5666 5667 5668 5669 5670 5671 5671 5671 5672 5672 5672 5673 5673 5673 5674 5674 5674 5674 5675 5675 5675 5675
5665 5663 5662 5661 5660 5658 5657 5656 5655 5653 5651 5650 5651 5650 5651 5653 5655 5655 5655 5655 5655 5656 5657 5658 5659 5659 5660 5661 5661 5662 5662 5663 5663 5663 5664 5664 5664 5664 5664 5664 5665 5665 5665 5665
5655 5654 5652 5651 5650 5649 5648 5647 5645 5642 5641 5641 5642 5640 5642 5644 5645 5645 5646 5646 5646 5647 5647 5648 5649 5650 5651 5651 5652 5652 5652 5653 5653 5654 5654 5654 5654 5654 5654 5654 5654 5654 5654 5654
5644 5644 5643 5642 5641 5640 5638 5637 5636 5634 5632 5633 5632 5631 5635 5635 5635 5635 5636 5636 5636 5637 5638 5638 5639 5640 5641 5641 5642 5642 5642 5643 5643 5643 5643 5643 5643 5643 5643 5643 5643 5643 5643 5643
5634 5633 5633 5633 5631 5630 5628 5627 5627 5624 5622 5622 5622 5623 5625 5626 5625 5625 5625 5625 5626 5627 5627 5628 5629 5629 5630 5631 5631 5632 5632 5632 5632 5632 5633 5632 5632 5632 5632 5631 5631 5631 5631 5632
5623 5622 5623 5623 5622 5620 5620 5618 5617 5614 5612 5611 5612 5614 5616 5616 5615 5616 5615 5615 5616 5616 5617 5618 5618 5619 5620 5620 5620 5621 5621 5621 5622 5622 5621 5621 5621 5620 5620 5620 5619 5619 5619 5619
5614 5613 5613 5613 5613 5612 5611 5609 5607 5605 5603 5602 5601 5607 5607 5606 5605 5605 5605 5605 5605 5606 5606 5607 5608 5608 5608 5609 5609 5609 5610 5610 5610 5610 5610 5609 5609 5608 5608 5607 5607 5607 5607 5607
5604 5603 5602 5603 5604 5602 5600 5600 5598 5597 5595 5593 5592 5598 5598 5596 5595 5595 5595 5594 5594 5595 5595 5596 5596 5597 5597 5598 5598 5598 5598 5598 5598 5598 5598 5597 5597 5596 5595 5595 5594 5594 5594 5594
5594 5593 5592 5593 5595 5593 5591 5590 5588 5587 5585 5583 5582 5588 5588 5586 5585 5584 5584 5584 5583 5584 5584 5584 5585 5585 5586 5586 5587 5587 5587 5586 5586 5586 5585 5585 5584 5583 5583 5582 5581 5581 5580 5580
5583 5583 5583 5583 5582 5581 5580 5580 5578 5576 5574 5574 5574 5576 5578 5576 5575 5574 5574 5573 5572 5572 5573 5573 5573 5574 5574 5574 5575 5575 5575 5574 5574 5573 5573 5572 5571 5570 5570 5569 5568 5568 5567 5567
5572 5572 5572 5571 5571 5570 5569 5568 5568 5566 5565 5563 5565 5565 5566 5565 5563 5563 5562 5562 5561 5561 5561 5561 5561 5562 5562 5562 5562 5562 5562 5561 5561 5560 5560 5559 5558 5557 5556 5555 5555 5554 5553 5553
5561 5560 5560 5560 5560 5558 5557 5558 5558 5556 5554 5553 5552 5554 5555 5553 5551 5551 5550 5550 5550 5550 5550 5549 5549 5549 5550 5550 5550 5550 5549 5549 5548 5548 5547 5546 5545 5544 5543 5542 5541 5540 5539 5538
5550 5549 5548 5548 5549 5545 5545 5550 5547 5545 5544 5542 5541 5543 5542 5540 5539 5539 5538 5538 5537 5538 5538 5537 5537 5537 5537 5537 5537 5537 5537 5536 5535 5535 5534 5533 5532 5531 5530 5529 5528 5526 5525 5524
5539 5538 5536 5535 5535 5532 5539 5538 5536 5533 5532 5531 5530 5530 5530 5529 5527 5526 5526 5526 5525 5525 5525 5525 5525 5524 5524 5524 5523 5523 5523 5523 5522 5522 5521 5520 5519 5518 5517 5516 5514 5513 5512 5511
5529 5527 5525 5523 5521 5520 5525 5526 5524 5521 5520 5521 5519 5518 5517 5516 5514 5514 5514 5513 5513 5513 5513 5512 5512 5511 5511 5510 5510 5510 5510 5509 5509 5508 5507 5506 5505 5504 5503 5502 5501 5499 5498 5497
5517 5515 5514 5512 5509 5509 5515 5514 5512 5509 5507 5510 5508 5507 5506 5504 5502 5504 5503 5501 5500 5500 5500 5499 5499 5498 5498 5497 5497 5497 5496 5496 5495 5494 5493 5492 5491 5490 5489 5488 5487 5486 5485 5484
5505 5503 5502 5501 5497 5497 5502 5501 5499 5497 5499 5498 5496 5494 5493 5492 5491 5491 5490 5488 5488 5487 5487 5486 5485 5485 5484 5484 5483 5483 5482 5482 5481 5480 5479 5478 5477 5476 5475 5474 5473 5472 5472 5471
5493 5492 5491 5489 5486 5490 5491 5489 5488 5486 5485 5484 5483 5482 5481 5479 5478 5478 5477 5476 5475 5474 5474 5473 5473 5472 5471 5470 5470 5469 5469 5468 5467 5466 5465 5464 5463 5462 5461 5460 5459 5458 5458 5458
5481 5482 5480 5479 5479 5479 5478 5476 5475 5474 5473 5472 5471 5470 5469 5467 5466 5465 5464 5463 5462 5462 5461 5461 5460 5459 5458 5457 5456 5456 5455 5454 5453 5452 5451 5450 5449 5448 5447 5446 5446 5445 5444 5444
5469 5469 5467 5465 5466 5466 5465 5463 5462 5461 5460 5459 5458 5458 5457 5456 5454 5454 5452 5451 5450 5450 5449 5448 5447 5446 5446 5444 5443 5442 5441 5440 5439 5438 5437 5436 5435 5434 5433 5432 5432 5431 5431 5430
5457 5456 5454 5453 5454 5453 5453 5451 5450 5449 5448 5447 5446 5445 5444 5443 5442 5442 5440 5440 5439 5438 5437 5436 5435 5434 5433 5431 5430 5429 5428 5427 5426 5425 5424 5422 5421 5420 5420 5419 5418 5418 5418 5417
5445 5443 5442 5442 5442 5440 5439 5439 5437 5436 5436 5435 5434 5433 5432 5431 5430 5429 5428 5427 5426 5426 5425 5423 5422 5421 5419 5418 5417 5415 5414 5413 5412 5411 5410 5409 5408 5407 5406 5406 5405 5404 5404 5403